Погода в Токме

Погода в Токме : погода сейчас, прогноз погоды и архив. Всё, что Вы хотите узнать о погоде в Токме!

Хотите узнать прогноз погоды в Токме? Тогда Вам сюда: Погода в Токме

Поиск расширенной информации на нашем сайте:

Другие новости

Новости СМИ2

Главная страница сайта

Новости сайта

03.07.2017

Напоминаем, что на нашем специализированном сайте Метеоцентр.Азия вы можете получить высокодетализированные автоматические прогнозы погоды по пунктам России, СНГ и мира в авиационном формате (включающие направление и скорость ветра, видимость, явления погоды, количество и форму облачности, нижнюю и верхнюю границу облачности).


Погода в Токме - сегодня

Время (UTC), дата Ветер
(°,м/с) 
Видим.   Явления Облачность Т
(°С)
Тd
(°С)
f(%) Тe
(°С)
Pmin
(гПа)
dP
(гПа)
Po
(мм)
O2
(г/м3)
Тmin Tmax R s Состояние
почвы
03 15.04.18 230 (ЮЗ) 20000 м  в посл. час ливневой снег  10/8 300 м кучево-дожд., средняя 
[Cb cap|As op]
+0.7 +0.7 100 1004.3  0.7  713  286           
06 15.04.18 230 (ЮЗ) 20000 м  {ливн. осадки}  8/8 600 м кучево-дожд. 
[Cb cap]
+2 -5.2 59 +1  1004.7  0.5  714  286           
09 15.04.18 290 (З) 20000 м  {ливн. осадки}  8/8 600 м кучево-дожд. 
[Cb cap]
+1.9 -8.3 47 +1  1007.2  2.4  716  287           
15 15.04.18 тихо ()   н/о    3/0 верхняя 
[Ci fib]
-6 -7.9 86 -6  1010.9  0.8  717  296           
18 15.04.18 тихо ()   н/о    10/0 верхняя 
[Cs]
-7.1 -7.6 96 -7  1011.9  0.7  718  298           
21 15.04.18 тихо ()   н/о    4/0 средняя 
[Ac lent]
-8.8 -9.5 95 -9  1012.2  -0.1  717  300           
03 16.04.18 230 (ЮЗ) 20000 м    10/3 600 м верхняя 
[Cu med, cong|Cs]
+2.7 -9.3 41 +1  1009.4  -1.1  717  287           
06 16.04.18 250 (З) 20000 м    9/9 600 м кучево-дожд. 
[Cb cap]
+3.9 -9.3 37 +2  1008.5  -0.7  717  286           
09 16.04.18 230 (ЮЗ) 20000 м    10/4 600 м кучево-дожд., средняя, верхняя 
[Cb cap|Ac cast|Cs]
+4 -6.3 47 +2  1008.5  717  285           
15 16.04.18 тихо ()   н/о    10/6 600 м средняя 
[Sc|Ac As]
-0.8 -5 73 -1  1008.4  -0.7  716  290           
18 16.04.18 тихо ()   н/о    10/5 600 м средняя 
[Sc|Ac As]
-2.9 -5.9 80 -3  1007.8  -1.2  715  292           
03 17.04.18 200 (Ю) 20000 м    10/0 средняя 
[Ac As]
+7.9 -5 40 +8  1003.9  -0.5  714  280           
06 17.04.18 200 (Ю) 20000 м    10/3 600 м верхняя 
[Cu Sc|Cs]
+10.6 -7.2 28 +9  1000.8  -2.4  712  277           
09 17.04.18 200 (Ю) 20000 м    8/4 600 м верхняя 
[Cu Sc|Cs]
+11 -6.8 28 +11  999.4  -1.3  711  276           
15 17.04.18 180 (Ю) н/о    10/0 средняя 
[As op]
+3.9 -4.8 53 +5  1001.5  712  283           
18 17.04.18 200 (Ю) н/о  в посл. час ливневой дождь  8/8 600 м кучево-дожд. 
[Cb cap]
+2.9 +0.2 82 1001.9  -0.4  712  284           
21 17.04.18 230 (ЮЗ) н/о  {ливн. осадки}  6/6 300 м кучево-дожд. 
[Cb cap]
-0.6 -4.4 75 -2  1004.4  1.7  713  288           
03 18.04.18 250 (З) 20000 м  {ливн. осадки}  9/9 600 м кучево-дожд. 
[Cb cap]
-0.5 -7.2 60 -2  1004.1  0.2  713  288           
09 18.04.18 250 (З) 20000 м    9/6 600 м кучево-дожд., средняя, верхняя 
[Cb calv|Ac cuf|Cs]
+0.5 -10.7 43 -3  1007.2  2.2  715  289           
15 18.04.18 250 (З) н/о    3/0 средняя 
[Ac lent]
-2.3 -12 47 -3  1012.9  2.4  719  293           
18 18.04.18 230 (ЮЗ) н/о    3/0 средняя 
[Ac lent]
-4.1 -10.4 61 -5  1015.1  1.7  720  296           
21 18.04.18 230 (ЮЗ) н/о    4/0 средняя 
[Ac lent]
-6.3 -11.7 65 -6  1016.1  0.5  721  298           
03 19.04.18 250 (З) 20000 м  {ливн. осадки}  8/8 600 м кучево-дожд. 
[Cb cap]
-3.2 -12.5 49 -7  1017.2  0.5  722  295           
06 19.04.18 270 (З) 20000 м  {ливн. осадки}  8/8 600 м кучево-дожд. 
[Cb cap]
-2.4 -10.2 55 -4  1016.8  -0.1  722  294           
09 19.04.18 270 (З) 20000 м    8/8 600 м кучево-дожд. 
[Cb cap]
-0.8 -10.4 48 -3  1016.7  0.1  722  293           
Время (UTC), дата Ветер
(°,м/с) 
Видим.   Явления Облачность Т
(°С)
Тd
(°С)
f(%) Тe
(°С)
Pmin
(гПа)
dP
(гПа)
Po
(мм)
O2
(г/м3)
Тmin Tmax R s Состояние
почвы

Для получения пояснительной информации подведите курсор к названию столбца.

ПОГОДА в Токме - архив

Всё, что Вы хотите узнать о погоде в Токме - удобно и подробно!

Выберите нужную дату (начиная с 1 января 2015* года) и нажмите кнопку "Найти".
Будут отображены архивные сводки погоды по пункту Токма, начиная с указанной даты.


Отображать данные в формате CSV (для использования в таблицах Excel)


Внимание! Наш архив погоды предназначен исключительно для личного некоммерческого использования в познавательных целях. Если Вам необходимы официальные справки о состоянии погоды (для производственных, юридических, коммерческих и т.п. целей), обращайтесь в органы Росгидромета.

*Примечание: данная дата относится к архиву по метеостанциям СССР (Россия, СНГ, Балтия).
Архив по метеостанциям Зарубежной Европы и Азии (кроме Китая) хранится 10 дней, по другим регионам земного шара (Китай, Африка, Америка, Австралия, Океания) - 1 день.

Токма - район местоположения метеостанции


Название, широта, долгота, высота метеостанции:
Токма 58.3°ш. 105.9°д. 435 м над ур. моря [Российская Федерация]

Дополнительная информация

В oтличие oт бoльшинства пoгoдных сайтoв мы публикуем пoдрoбную метеoинфoрмацию в детальнoм прoфессиoнальнoм фoрмате.

Характеристики температуры и влажнoсти вoздуха измеряются на высoте 2 м в тени вдали oт зданий и деревьев.
Скoрoсть ветра измеряется на высoте 10 м (на урoвне рoста челoвека скoрoсть ветра ниже в 1.5-2 раза). Если метеoстанция нахoдится в гoрoде или в лесу, тo скoрoсть ветра занижена на 2-4 м/с пo сравнению с oткрытым местoм. Скoрoсть ветра над акватoриями крупных рек и oзёр, а также на вершинах хoлмoв на 2-5 м/с выше, чем в oбычных услoвиях.
Атмoсфернoе давление в разных тoчках местнoсти мoжет значительнo oтличаться oт давления на метеoстанции, в зависимoсти oт услoвий рельефа (при пoдъёме на 10 м давление пoнижается примернo на 1 мм рт.ст.).